Chesapeake, VA

9:10 AM EDT on June 24, 2018 (GMT -0400)
Chesapeake Regional

Weather History for KCPK - January, 2017

Change the Weather History Date:

Sunday, January 15, 2017

  Actual Average (KSFQ) Record (KSFQ)
Temperature  
Mean Temperature 40 °F -  
Max Temperature 44 °F 45 °F 73 °F (2007)
Min Temperature 35 °F 29 °F 14 °F (1964)
Degree Days  
Heating Degree Days 26    
Moisture  
Dew Point 34 °F    
Average Humidity 76    
Maximum Humidity 93    
Minimum Humidity 49    
Precipitation  
Precipitation 0.00 in - - ()
Sea Level Pressure  
Sea Level Pressure 30.36 in    
Wind  
Wind Speed 2 mph (NNE)    
Max Wind Speed 12 mph    
Max Gust Speed 17 mph    
Visibility 10 miles    
Events      
Averages and records for this station are not official NWS values.
T = Trace of Precipitation, MM = Missing Value Source: NWS Daily Summary

Daily Weather History Graph

Daily Weather History Graph

Search for Another Location

Airport or City:

Astronomy

Jan. 15, 2017 Rise Set
Actual Time 7:16 AM EST 5:13 PM EST
Civil Twilight 6:48 AM EST 5:41 PM EST
Nautical Twilight 6:16 AM EST 6:13 PM EST
Astronomical Twilight 5:45 AM EST 6:44 PM EST
Moon 8:54 PM EST (1/15) 9:22 AM EST (1/15)
Length of Visible Light 10h 52m
Length of Day
9h 56m
Waning Gibbous, 87% of the Moon is Illuminated
Jan 15
Waning Gibbous
Jan 19
Last Quarter
Jan 27
New
Feb 3
First Quarter
Feb 10
Full

Hourly Weather History & Observations

Time (EST) Temp. Windchill Dew Point Humidity Pressure Visibility Wind Dir Wind Speed Gust Speed Precip Events Conditions
12:12 AM 41.0 °F - 37.4 °F 87% 30.30 in 10.0 mi Calm Calm - N/A   Overcast
12:32 AM 41.0 °F - 39.2 °F 93% 30.30 in 10.0 mi Calm Calm - N/A   Overcast
12:52 AM 41.0 °F - 39.2 °F 93% 30.29 in 10.0 mi Calm Calm - N/A   Overcast
1:12 AM 41.0 °F - 39.2 °F 93% 30.28 in 10.0 mi Calm Calm - N/A   Overcast
1:32 AM 41.0 °F - 39.2 °F 93% 30.28 in 10.0 mi Calm Calm - N/A   Overcast
1:52 AM 42.8 °F - 39.2 °F 87% 30.28 in 10.0 mi Calm Calm - N/A   Overcast
2:12 AM 42.8 °F - 39.2 °F 87% 30.30 in 10.0 mi Calm Calm - N/A   Overcast
2:32 AM 42.8 °F - 39.2 °F 87% 30.30 in 10.0 mi Calm Calm - N/A   Overcast
2:52 AM 42.8 °F - 39.2 °F 87% 30.30 in 10.0 mi Calm Calm - N/A   Overcast
3:12 AM 42.8 °F 41.1 °F 39.2 °F 87% 30.30 in 10.0 mi NNE 3.5 mph - N/A   Overcast
3:32 AM 42.8 °F - 39.2 °F 87% 30.30 in 10.0 mi Calm Calm - N/A   Overcast
3:52 AM 42.8 °F - 39.2 °F 87% 30.30 in 10.0 mi Calm Calm - N/A   Overcast
4:12 AM 42.8 °F - 39.2 °F 87% 30.30 in 10.0 mi Calm Calm - N/A   Overcast
4:32 AM 42.8 °F - 39.2 °F 87% 30.30 in 10.0 mi Calm Calm - N/A   Mostly Cloudy
4:52 AM 42.8 °F - 39.2 °F 87% 30.30 in 10.0 mi Calm Calm - N/A   Mostly Cloudy
5:12 AM 42.8 °F - 39.2 °F 87% 30.30 in 10.0 mi Calm Calm - N/A   Overcast
5:32 AM 42.8 °F - 39.2 °F 87% 30.31 in 10.0 mi Calm Calm - N/A   Overcast
5:52 AM 42.8 °F - 39.2 °F 87% 30.32 in 10.0 mi Calm Calm - N/A   Overcast
6:12 AM 42.8 °F - 39.2 °F 87% 30.32 in 10.0 mi Calm Calm - N/A   Overcast
6:32 AM 42.8 °F - 39.2 °F 87% 30.33 in 10.0 mi Calm Calm - N/A   Overcast
6:52 AM 42.8 °F - 39.2 °F 87% 30.34 in 10.0 mi Calm Calm - N/A   Overcast
7:13 AM 41.0 °F - 39.2 °F 93% 30.34 in 10.0 mi Calm Calm - N/A   Overcast
7:32 AM 42.8 °F - 39.2 °F 87% 30.35 in 7.0 mi Calm Calm - N/A   Overcast
7:52 AM 42.8 °F 41.1 °F 39.2 °F 87% 30.35 in 10.0 mi North 3.5 mph - N/A   Overcast
8:12 AM 42.8 °F 40.1 °F 39.2 °F 87% 30.36 in 10.0 mi North 4.6 mph - N/A   Overcast
8:32 AM 42.8 °F 40.1 °F 39.2 °F 87% 30.37 in 10.0 mi North 4.6 mph - N/A   Overcast
8:52 AM 42.8 °F 38.0 °F 37.4 °F 81% 30.38 in 10.0 mi North 8.1 mph - N/A   Overcast
9:13 AM 42.8 °F 39.3 °F 37.4 °F 81% 30.39 in 10.0 mi North 5.8 mph - N/A   Overcast
9:34 AM 42.8 °F 37.0 °F 37.4 °F 81% 30.40 in 10.0 mi North 10.4 mph - N/A   Overcast
9:52 AM 42.8 °F 37.5 °F 37.4 °F 81% 30.40 in 10.0 mi North 9.2 mph - N/A   Overcast
10:12 AM 42.8 °F 37.5 °F 35.6 °F 76% 30.40 in 10.0 mi North 9.2 mph 16.1 mph N/A   Mostly Cloudy
10:32 AM 44.6 °F 39.7 °F 35.6 °F 71% 30.41 in 10.0 mi North 9.2 mph - N/A   Overcast
10:52 AM 42.8 °F 38.6 °F 35.6 °F 76% 30.41 in 10.0 mi North 6.9 mph - N/A   Overcast
11:12 AM 44.6 °F 38.8 °F 35.6 °F 71% 30.40 in 10.0 mi NNE 11.5 mph 17.3 mph N/A   Overcast
11:33 AM 44.6 °F 39.2 °F 35.6 °F 71% 30.39 in 10.0 mi NNE 10.4 mph 16.1 mph N/A   Overcast
11:52 AM 44.6 °F 38.8 °F 35.6 °F 71% 30.38 in 10.0 mi NNE 11.5 mph 16.1 mph N/A   Overcast
12:12 PM 42.8 °F 38.0 °F 35.6 °F 76% 30.37 in 10.0 mi NNE 8.1 mph - N/A   Overcast
12:32 PM 42.8 °F 37.5 °F 35.6 °F 76% 30.37 in 10.0 mi North 9.2 mph - N/A   Overcast
12:52 PM 42.8 °F 37.5 °F 33.8 °F 70% 30.37 in 10.0 mi North 9.2 mph - N/A   Overcast
1:13 PM 42.8 °F 39.3 °F 33.8 °F 70% 30.37 in 10.0 mi NNE 5.8 mph - N/A   Overcast
1:32 PM 42.8 °F 38.0 °F 33.8 °F 70% 30.36 in 10.0 mi NNE 8.1 mph - N/A   Overcast
1:52 PM 42.8 °F 38.6 °F 33.8 °F 70% 30.36 in 10.0 mi NNW 6.9 mph - N/A   Overcast
2:12 PM 44.6 °F 40.7 °F 33.8 °F 66% 30.35 in 10.0 mi NNE 6.9 mph - N/A   Overcast
2:32 PM 44.6 °F 42.2 °F 33.8 °F 66% 30.36 in 10.0 mi North 4.6 mph - N/A   Overcast
2:52 PM 44.6 °F 43.1 °F 32.0 °F 61% 30.36 in 10.0 mi North 3.5 mph - N/A   Overcast
3:13 PM 44.6 °F 40.2 °F 32.0 °F 61% 30.36 in 10.0 mi NNE 8.1 mph - N/A   Overcast
3:32 PM 44.6 °F 40.2 °F 32.0 °F 61% 30.36 in 10.0 mi NNE 8.1 mph - N/A   Scattered Clouds
3:52 PM 44.6 °F 42.2 °F 30.2 °F 57% 30.36 in 10.0 mi North 4.6 mph - N/A   Clear
4:12 PM 42.8 °F 40.1 °F 28.4 °F 57% 30.37 in 10.0 mi North 4.6 mph - N/A   Clear
4:32 PM 42.8 °F 40.1 °F 24.8 °F 49% 30.37 in 10.0 mi NNE 4.6 mph - N/A   Clear
4:52 PM 42.8 °F 40.1 °F 24.8 °F 49% 30.38 in 10.0 mi NNE 4.6 mph - N/A   Clear
5:12 PM 41.0 °F - 24.8 °F 53% 30.39 in 10.0 mi Calm Calm - N/A   Clear
5:32 PM 41.0 °F - 26.6 °F 57% 30.39 in 10.0 mi Calm Calm - N/A   Scattered Clouds
5:52 PM 39.2 °F - 26.6 °F 61% 30.40 in 10.0 mi Calm Calm - N/A   Scattered Clouds
6:12 PM 39.2 °F 37.0 °F 28.4 °F 65% 30.39 in 10.0 mi NE 3.5 mph - N/A   Clear
6:32 PM 39.2 °F 37.0 °F 28.4 °F 65% 30.40 in 10.0 mi NE 3.5 mph - N/A   Clear
6:52 PM 39.2 °F - 26.6 °F 61% 30.40 in 10.0 mi Calm Calm - N/A   Clear
7:12 PM 39.2 °F 37.0 °F 24.8 °F 56% 30.40 in 10.0 mi NNE 3.5 mph - N/A   Clear
7:32 PM 37.4 °F - 28.4 °F 70% 30.40 in 10.0 mi Calm Calm - N/A   Clear
7:52 PM 37.4 °F - 28.4 °F 70% 30.40 in 10.0 mi Calm Calm - N/A   Clear
8:12 PM 37.4 °F - 30.2 °F 75% 30.41 in 10.0 mi Calm Calm - N/A   Scattered Clouds
8:32 PM 37.4 °F - 30.2 °F 75% 30.41 in 10.0 mi Calm Calm - N/A   Mostly Cloudy
8:52 PM 35.6 °F - 30.2 °F 81% 30.42 in 10.0 mi Calm Calm - N/A   Mostly Cloudy
9:12 PM 35.6 °F - 32.0 °F 87% 30.41 in 10.0 mi Calm Calm - N/A   Scattered Clouds
9:32 PM 37.4 °F - 30.2 °F 75% 30.41 in 10.0 mi Calm Calm - N/A   Scattered Clouds
9:52 PM 37.4 °F - 33.8 °F 87% 30.42 in 10.0 mi Calm Calm - N/A   Mostly Cloudy
10:12 PM 37.4 °F - 28.4 °F 70% 30.42 in 10.0 mi Calm Calm - N/A   Overcast
10:32 PM 37.4 °F - 32.0 °F 81% 30.42 in 10.0 mi Calm Calm - N/A   Overcast
10:52 PM 37.4 °F - 32.0 °F 81% 30.42 in 10.0 mi Calm Calm - N/A   Mostly Cloudy
11:12 PM 39.2 °F - 30.2 °F 70% 30.42 in 10.0 mi Calm Calm - N/A   Mostly Cloudy
11:32 PM 39.2 °F - 32.0 °F 75% 30.43 in 10.0 mi Calm Calm - N/A   Overcast
11:52 PM 39.2 °F - 33.8 °F 81% 30.43 in 10.0 mi Calm Calm - N/A   Overcast